[[{"header":{"parameterUnit":"m.s-1","parameterCategory":1,"la1":30.2991,"la2":30.254,"lo1":-89.0895,"lo2":-89.0444,"dy":0.0017,"dx":0.0017,"nx":28,"ny":28,"refTime":"2025-11-09T03:00:00:Z","depth":0,"parameterNumber":2,"parameterNumberName":"U-component_of_WINDS"},"data":[0,0,0,0,0,0,0,0,0,0,0,0,0,0,0,0,0,0,0,0,0,0,0,0,0,0,0,0,0,0,0,0,0,0,0,0,0,0,0,0,0,0,0,0,0,0,0,0,0,0,0,0,0,0,0,0,0,0,2.3588,2.3588,0,2.3591,2.3591,2.3591,2.3566,2.3565,2.3564,2.3564,2.3565,2.3566,2.3567,0,0,0,0,0,0,0,0,0,0,0,0,0,2.3561,2.3562,2.3588,2.3588,2.3588,2.3591,2.3591,2.3591,2.3566,2.3565,2.3564,2.3563,2.3565,2.3566,2.3567,0,0,0,0,0,0,0,0,0,0,0,0,0,2.3569,2.3562,2.3588,2.3576,2.3575,2.359,2.3591,2.3591,2.3566,2.3565,2.3564,2.3563,2.3565,2.3566,2.3567,2.3594,0,0,2.357,2.357,0,0,0,0,0,0,0,0,2.3569,2.357,2.3577,2.3577,2.3575,2.3577,2.3582,2.3592,2.3566,2.3569,2.3564,2.3562,2.357,2.357,2.3573,2.3594,2.3594,2.357,2.3571,2.3571,2.3571,0,0,0,0,0,0,0,2.3568,2.357,2.3589,2.3578,2.3576,2.357,2.357,2.3583,2.3575,2.3569,2.3567,2.3568,2.3569,2.3572,2.3573,2.3594,2.357,2.3571,2.3571,2.3572,2.3638,2.3639,0,0,0,0,0,0,2.3569,2.3569,2.3589,2.3589,2.3569,2.3572,2.3572,2.3577,2.3575,2.3574,2.3569,2.3567,2.3571,2.3572,2.3573,2.3605,2.3571,2.3572,2.3573,2.3637,2.3639,2.364,0,0,0,0,0,0,2.3569,2.3571,2.3588,2.3579,2.358,2.3573,2.358,2.3578,2.3581,2.3575,2.3573,2.3573,2.357,2.3571,2.3589,2.3604,2.3572,2.3573,2.3636,2.3638,2.3639,2.3669,0,0,0,0,0,0,2.3568,2.3571,2.3581,2.3579,2.3581,2.3605,2.3581,2.3579,2.3583,2.358,2.3579,2.3578,2.3569,2.3588,2.359,2.3605,2.3574,2.3634,2.3637,2.3639,2.3666,2.3671,2.3675,0,0,0,0,0,2.3567,2.3588,2.3582,2.3584,2.3593,2.3605,2.3607,2.3597,2.3584,2.3594,2.3591,2.3578,2.3603,2.359,2.3592,2.3608,2.3633,2.3636,2.3638,2.3664,2.367,2.3675,0,0,0,0,0,0,2.3591,2.3588,2.358,2.3601,2.3604,2.3601,2.3613,2.3604,2.3609,2.3607,2.3594,2.3594,2.3614,2.3613,2.3598,2.3635,2.3616,2.3619,2.3634,2.364,2.3645,2.3644,2.3575,0,0,0,0,0,2.3599,2.361,2.3606,2.3625,2.3627,2.362,2.3625,2.3618,2.362,2.3621,2.3618,2.3621,2.3629,2.3635,2.3642,2.3667,2.3666,2.3679,2.3683,2.3687,2.369,2.3704,2.3709,2.3648,2.3648,2.3648,0,0,2.3615,2.3615,2.3622,2.363,2.3631,2.3642,2.3621,2.3633,2.3642,2.3622,2.3639,2.3638,2.364,2.3661,2.367,2.3661,2.3707,2.3691,2.3694,2.3694,2.3707,2.3713,2.3718,2.365,2.365,2.3649,0,0,2.365,2.3651,2.3667,2.367,2.3672,2.3668,2.3672,2.3671,2.367,2.3687,2.3673,2.3683,2.3698,2.37,2.3703,2.3742,2.373,2.3745,2.3768,2.3782,2.3786,2.3791,2.3805,2.381,2.3748,2.3748,2.3748,0,2.3669,2.3686,2.3677,2.3691,2.3695,2.368,2.3697,2.3699,2.3704,2.3708,2.3697,2.3716,2.3716,2.3739,2.3749,2.3751,2.3756,2.3744,2.3787,2.3791,2.3794,2.3808,2.3813,2.3749,2.3749,2.3749,2.3749,0,2.371,2.3721,2.3735,2.3741,2.3747,2.3762,2.3756,2.3763,2.3757,2.3754,2.3772,2.3772,2.378,2.3785,2.3778,2.3807,2.3801,2.3789,2.3769,2.3802,2.3814,2.3819,2.3752,2.3751,2.3751,2.375,0,0,2.3757,2.376,2.3765,2.3768,2.3771,2.378,2.3796,2.3804,2.3811,2.3816,2.3828,2.3842,2.3832,2.3836,2.3829,2.3841,2.3873,2.3828,2.3828,2.3836,2.3905,2.3913,2.3919,2.3866,2.3867,2.3867,2.3905,0,2.3791,2.3817,2.3811,2.3837,2.3848,2.3836,2.3849,2.3853,2.3851,2.3861,2.3859,2.3869,2.3854,2.3857,2.3868,2.3866,2.3886,2.3864,2.3877,2.3877,2.3876,2.3926,2.3934,2.3969,2.391,2.391,2.3911,0,2.3833,2.3841,2.3868,2.3871,2.3876,2.3888,2.3896,2.3906,2.391,2.3908,2.3914,2.3905,2.3921,2.3903,2.3924,2.3909,2.3915,2.3915,2.3916,2.3916,2.3895,2.3926,2.398,2.3986,2.3918,2.3918,2.3917,0,2.3865,2.3882,2.3901,2.3904,2.3908,2.3917,2.3919,2.3923,2.3929,2.3937,2.3941,2.395,2.3954,2.3962,2.3956,2.3943,2.3979,2.396,2.3978,2.3978,2.3984,2.3984,2.4039,2.399,2.3989,2.3989,2.3989,0,2.3903,2.392,2.3916,2.3927,2.3947,2.394,2.396,2.396,2.3964,2.3976,2.3965,2.3977,2.3969,2.398,2.3976,2.3995,2.3997,2.3996,2.3994,2.3996,2.3996,2.3999,2.3996,2.3991,2.399,2.399,2.399,0,2.394,2.3938,2.3958,2.3961,2.3963,2.3977,2.3979,2.3991,2.3989,2.4004,2.4008,2.4006,2.4018,2.4014,2.4027,2.4024,2.4048,2.4044,2.4047,2.4045,2.4063,2.4061,2.4121,2.4129,2.4075,2.4075,2.4076,0,2.3964,2.3977,2.3983,2.399,2.3994,2.4006,2.4013,2.4008,2.4015,2.4023,2.4033,2.4045,2.4054,2.4074,2.4074,2.4084,2.4079,2.41,2.4081,2.4083,2.4079,2.4078,2.408,2.4103,2.4104,2.4104,2.4105,0,2.4006,2.4005,2.4016,2.4027,2.4036,2.4044,2.4051,2.4057,2.4053,2.4062,2.4076,2.4083,2.4097,2.4109,2.4119,2.4121,2.4112,2.4111,2.4116,2.4117,2.4118,2.4118,2.4056,2.4109,2.4109,2.4108,2.4108,2.4108,2.4037,2.4049,2.4055,2.4068,2.4073,2.4081,2.4092,2.4093,2.4104,2.4116,2.4113,2.4128,2.4134,2.4146,2.415,2.4162,2.4154,2.416,2.4162,2.4163,2.4166,2.4118,2.4163,2.4163,2.4163,2.4163,2.4163,0,2.4079,2.4083,2.4095,2.4106,2.4116,2.4109,2.4117,2.4126,2.414,2.4146,2.4156,2.4172,2.4184,2.4186,2.4198,2.4207,2.4203,2.421,2.4209,2.4209,2.4172,2.4167,2.4213,2.4213,2.4213,2.4213,2.4213,2.4213,2.4102,2.4122,2.4122,2.4145,2.4149,2.4164,2.4169,2.4177,2.4182,2.42,2.4211,2.4213,2.4217,2.423,2.4241,2.4241,2.4245,2.4254,2.4252,2.4217,2.4212,2.4207,2.4202,2.4255,2.4255,2.4289,2.4289,2.4289]},{"header":{"parameterUnit":"m.s-1","parameterCategory":1,"la1":30.2991,"la2":30.254,"lo1":-89.0895,"lo2":-89.0444,"dy":0.0017,"dx":0.0017,"nx":28,"ny":28,"refTime":"2025-11-09T03:00:00:Z","depth":0,"parameterNumber":3,"parameterNumberName":"V-component_of_WINDS"},"data":[0,0,0,0,0,0,0,0,0,0,0,0,0,0,0,0,0,0,0,0,0,0,0,0,0,0,0,0,0,0,0,0,0,0,0,0,0,0,0,0,0,0,0,0,0,0,0,0,0,0,0,0,0,0,0,0,0,0,-9.7634,-9.7636,0,-9.7822,-9.7824,-9.7826,-9.7719,-9.7714,-9.7708,-9.7703,-9.7889,-9.7898,-9.7908,0,0,0,0,0,0,0,0,0,0,0,0,0,-9.7176,-9.7185,-9.7633,-9.7636,-9.7638,-9.7821,-9.7824,-9.7826,-9.772,-9.7713,-9.7707,-9.7701,-9.7886,-9.7897,-9.7909,0,0,0,0,0,0,0,0,0,0,0,0,0,-9.737,-9.7188,-9.7633,-9.7607,-9.7607,-9.7821,-9.7824,-9.7827,-9.7721,-9.7713,-9.7705,-9.7698,-9.7882,-9.7896,-9.7911,-9.8159,0,0,-9.7956,-9.7962,0,0,0,0,0,0,0,0,-9.7359,-9.7387,-9.7609,-9.7609,-9.7609,-9.7739,-9.773,-9.7938,-9.7723,-9.7678,-9.7703,-9.7694,-9.7845,-9.7862,-9.7914,-9.8167,-9.8175,-9.7957,-9.7966,-9.7972,-9.7976,0,0,0,0,0,0,0,-9.7346,-9.7378,-9.7707,-9.7612,-9.7612,-9.7584,-9.7603,-9.7769,-9.7803,-9.7681,-9.7674,-9.7698,-9.7843,-9.7901,-9.7918,-9.8178,-9.7957,-9.797,-9.7979,-9.7984,-9.8645,-9.8653,0,0,0,0,0,0,-9.7335,-9.7368,-9.7701,-9.7713,-9.7463,-9.7599,-9.762,-9.7705,-9.7801,-9.7808,-9.7704,-9.7692,-9.7879,-9.7901,-9.7924,-9.8222,-9.7972,-9.7986,-9.7994,-9.8636,-9.8647,-9.8656,0,0,0,0,0,0,-9.7326,-9.7366,-9.7694,-9.7539,-9.7578,-9.7615,-9.7711,-9.7713,-9.777,-9.7818,-9.7823,-9.7757,-9.7874,-9.7903,-9.8102,-9.8227,-9.7993,-9.8006,-9.8626,-9.8639,-9.8651,-9.8819,0,0,0,0,0,0,-9.7313,-9.7363,-9.7459,-9.7542,-9.7587,-9.7871,-9.7719,-9.7722,-9.7797,-9.7782,-9.7869,-9.7876,-9.787,-9.8081,-9.8117,-9.8243,-9.8017,-9.8615,-9.8632,-9.8647,-9.8802,-9.8836,-9.8865,0,0,0,0,0,-9.7297,-9.7497,-9.7465,-9.7505,-9.7708,-9.7879,-9.7904,-9.7896,-9.7807,-9.7903,-9.7934,-9.7873,-9.8207,-9.8102,-9.8141,-9.8274,-9.8607,-9.8627,-9.8646,-9.8788,-9.8829,-9.8864,0,0,0,0,0,0,-9.7425,-9.7507,-9.7472,-9.7705,-9.7786,-9.786,-9.7981,-9.7939,-9.8045,-9.8027,-9.8009,-9.803,-9.8237,-9.8275,-9.8156,-9.8519,-9.8393,-9.8421,-9.8487,-9.8527,-9.8557,-9.8544,-9.803,0,0,0,0,0,-9.7481,-9.7614,-9.7678,-9.7877,-9.792,-9.7944,-9.8018,-9.8005,-9.8086,-9.8119,-9.8165,-9.8245,-9.8368,-9.8449,-9.8565,-9.8807,-9.8824,-9.8917,-9.8949,-9.8974,-9.8999,-9.913,-9.9173,-9.872,-9.872,-9.872,0,0,-9.7596,-9.7658,-9.7742,-9.7905,-9.7966,-9.8103,-9.7973,-9.8123,-9.8224,-9.8141,-9.8333,-9.8369,-9.8457,-9.8679,-9.8779,-9.8717,-9.9128,-9.8999,-9.9019,-9.903,-9.9155,-9.9198,-9.9236,-9.8734,-9.8731,-9.8729,0,0,-9.7877,-9.7938,-9.8111,-9.8176,-9.8271,-9.8286,-9.8328,-9.841,-9.8431,-9.8624,-9.8565,-9.8683,-9.8895,-9.8961,-9.9022,-9.9331,-9.9278,-9.9369,-9.9532,-9.966,-9.9696,-9.9727,-9.9838,-9.9878,-9.9393,-9.9394,-9.9394,0,-9.8008,-9.8215,-9.8204,-9.8361,-9.8434,-9.8368,-9.8543,-9.8605,-9.8732,-9.8783,-9.8713,-9.8979,-9.9033,-9.927,-9.9346,-9.9397,-9.9444,-9.9359,-9.9692,-9.9724,-9.9753,-9.9858,-9.99,-9.9404,-9.9403,-9.9402,-9.9401,0,-9.8372,-9.8516,-9.8644,-9.8773,-9.886,-9.9024,-9.9038,-9.9127,-9.9106,-9.9128,-9.9325,-9.9388,-9.9517,-9.9571,-9.9552,-9.9806,-9.9765,-9.9694,-9.9566,-9.9807,-9.9905,-9.9945,-9.9419,-9.9415,-9.9412,-9.941,0,0,-9.8738,-9.886,-9.8908,-9.8966,-9.9067,-9.9177,-9.9338,-9.9467,-9.9544,-9.9634,-9.9768,-9.995,-9.9886,-9.9955,-9.9942,-10.0055,-10.0296,-9.997,-9.9971,-10.0029,-10.0581,-10.0635,-10.0682,-10.0262,-10.027,-10.0276,-10.0574,0,-9.9026,-9.9311,-9.9308,-9.9571,-9.9704,-9.9644,-9.9784,-9.9861,-9.9886,-10.0001,-10.0027,-10.0157,-10.0062,-10.0104,-10.0212,-10.0244,-10.0407,-10.0222,-10.0386,-10.0392,-10.0367,-10.0733,-10.079,-10.1068,-10.0612,-10.0619,-10.0624,0,-9.9401,-9.9507,-9.9785,-9.9868,-9.9924,-10.0051,-10.0168,-10.028,-10.0365,-10.0375,-10.0454,-10.0424,-10.0586,-10.0455,-10.0678,-10.0552,-10.0619,-10.0644,-10.0655,-10.067,-10.0523,-10.0758,-10.1157,-10.1199,-10.0684,-10.0679,-10.0675,0,-9.9641,-9.9853,-10.0047,-10.0098,-10.02,-10.0291,-10.0337,-10.0415,-10.0493,-10.0595,-10.0645,-10.0764,-10.0829,-10.092,-10.0922,-10.0826,-10.1148,-10.1016,-10.116,-10.1161,-10.1231,-10.1226,-10.1646,-10.1273,-10.1273,-10.1272,-10.1271,0,-9.9964,-10.0136,-10.0157,-10.0276,-10.0468,-10.0461,-10.0649,-10.0686,-10.0757,-10.0881,-10.0835,-10.0952,-10.0947,-10.1066,-10.1068,-10.1253,-10.1282,-10.1294,-10.1292,-10.1299,-10.1297,-10.1342,-10.1323,-10.1283,-10.128,-10.1278,-10.1276,0,-10.0265,-10.0286,-10.0493,-10.0574,-10.0598,-10.0736,-10.0803,-10.0916,-10.0938,-10.1096,-10.1132,-10.1165,-10.1303,-10.1314,-10.1472,-10.1473,-10.1697,-10.1674,-10.167,-10.1666,-10.181,-10.1796,-10.2273,-10.2335,-10.1922,-10.1926,-10.1929,0,-10.0469,-10.0601,-10.0697,-10.0779,-10.0831,-10.0962,-10.1043,-10.1041,-10.1125,-10.1234,-10.1334,-10.1467,-10.1574,-10.1795,-10.1832,-10.1953,-10.1933,-10.2092,-10.195,-10.1953,-10.1936,-10.1928,-10.1942,-10.2119,-10.2123,-10.2127,-10.213,0,-10.0831,-10.0836,-10.0954,-10.1079,-10.1176,-10.1272,-10.1362,-10.1431,-10.144,-10.1537,-10.1679,-10.1762,-10.1925,-10.2058,-10.2177,-10.2221,-10.2178,-10.2175,-10.2214,-10.2222,-10.2214,-10.2221,-10.1745,-10.2163,-10.216,-10.2158,-10.2156,-10.2154,-10.1091,-10.1206,-10.1292,-10.1426,-10.1494,-10.158,-10.1691,-10.1728,-10.1847,-10.1982,-10.1972,-10.2129,-10.221,-10.2366,-10.242,-10.2541,-10.2487,-10.2545,-10.256,-10.2574,-10.259,-10.2195,-10.2563,-10.2562,-10.2561,-10.256,-10.2559,0,-10.1451,-10.1504,-10.1628,-10.1757,-10.1863,-10.1815,-10.1912,-10.2003,-10.2143,-10.2224,-10.2331,-10.2494,-10.2623,-10.2671,-10.2796,-10.2884,-10.2867,-10.2917,-10.2911,-10.2922,-10.263,-10.2584,-10.2929,-10.2929,-10.2929,-10.2929,-10.2929,-10.2928,-10.1651,-10.1844,-10.1859,-10.2084,-10.2135,-10.2291,-10.2351,-10.2429,-10.2494,-10.2679,-10.2788,-10.2819,-10.2887,-10.3017,-10.3133,-10.3143,-10.3192,-10.3251,-10.3253,-10.2979,-10.2942,-10.2907,-10.2863,-10.3261,-10.3262,-10.3534,-10.3537,-10.3539]}]]